{"data":{"norad_id":56095,"intl_designator":"2023-046C","name":"STARLINK-6090","alt_names":[],"object_type":"PAYLOAD","status":"ACTIVE","operator":null,"country":"US","launch_date":"2023-03-29","launch_site_code":"AFETR","launch_vehicle":null,"mission":null,"orbit_class":"UNKNOWN","rcs_meters":null,"size_class":null,"mass_kg":null,"dimensions":null,"purposes":["comms"],"wikipedia_slug":null,"has_3d_model":false,"image_url":null,"decayed_at":null,"tle_current":{"epoch":"2026-09-20T22:12:52.669440Z","epoch_age_seconds":69340,"freshness":"FRESH","line1":"1 56095U 23046C   26263.92560960  .00000430  00000+0  25149-4 0  9997","line2":"2 56095  43.0033 138.6925 0001796 261.1313  98.9336 15.27576384191898","mean_motion":15.27576384,"eccentricity":0.0001796,"inclination_deg":43.0033,"raan_deg":138.6925,"arg_perigee_deg":261.1313,"mean_anomaly_deg":98.9336,"bstar":2.5149e-5,"rev_number":19189,"period_min":94.266971857035,"perigee_km":481.82765269837,"apogee_km":484.29219463335,"semimajor_km":6861.1969236659,"source":"CELESTRAK","updated_at":"2026-09-21T09:00:33.361872Z"}}}